Location: Veytaux
(46.4185°N, 6.9320°E)
Time: 08:16:11
(UTC+00:00)

Cosmos 1300 - Pass Details

Date: 27 May 2022
Orbit: 506 x 508 km, 82.5° (Epoch: 01 July)

Event Time Altitude Azimuth Distance (km) Brightness Sun altitude
Rises 00:39:01 0° 347° (NNW) 2,623 7.3 -20.5°
Reaches altitude 10° 00:41:11 10° 343° (NNW) 1,732 6.1 -20.4°
Maximum altitude 00:44:54 56° 265° (W) 609 2.8 -20.2°
Enters shadow 00:45:03 55° 253° (WSW) 612 2.8 -20.2°
